KONPKCVO

Guest
Details From KONP - Newport Muni
To KCVO - Corvallis Muni
Flight Number -
Tags Routegen Generated
Created
Modified
Stats Distance 42 nm / 78 km
Max Altitude 100 ft / 30 m
Waypoints 5
Social Downloads 0
Likes 0
Share VATSIM

Download

Looking for another format? Having issues loading an existing format? Contact us
Advertisement - Login to hide

Notes

Departing runway 17 KONP. Arriving runway 18 KCVO.

Route

KONP +44.50_-124.05 +44.53_-123.67 +44.56_-123.28 KCVO

ID Type Via Altitude Latitude Longitude Leg Dist Tot Dist Heading (true) Name
O KONP APT - 0 ft / 0 m 44.57205˚ -124.05841˚ - 0 nm - -
+44.50_-124.05 LATLON - 100 ft / 30 m 44.49976˚ -124.05369˚ 4 nm 4 nm 177° / 177° -
+44.53_-123.67 LATLON - 100 ft / 30 m 44.52950˚ -123.66762˚ 16 nm 20 nm 84° / 84° -
+44.56_-123.28 LATLON - 100 ft / 30 m 44.55923˚ -123.28156˚ 16 nm 37 nm 84° / 84° -
O KCVO APT - 0 ft / 0 m 44.48739˚ -123.29382˚ 4 nm 41 nm 187° / 187° -

Altitude Profile

Advertisement - Login to hide

KONP

Details ICAO KONP
Name Newport Muni
Region United States
Timezone America/Los_Angeles (UTC-8.0)
Stats Elevation 160 ft / 49 m (AMSL)
Location 44.580776° -124.057500°
Runways 2
Magnetic Variation 15.285° E

METAR

KONP 181835Z AUTO 19012G17KT 1 1/2SM DZ OVC004 10/10 A3024 RMK AO2 P0001

Decode

TAF

KONP 181747Z 1818/1918 19011KT 2SM -DZ BR BKN004 OVC010 TEMPO 1818/1820 -DZ BKN004 OVC019 FM182200 17008KT 6SM BR OVC020 FM190500 18013KT 3SM -RA OVC008 FM191300 20030G39KT 5SM RA BR SCT006 OVC011

Decode

Departure Runways

ID Width Length Bearing (true) Bearing (mag) Surface Threshold Offset Overrun Length
02 75 ft / 23 m 3,041 ft / 927 m 37.34° 22.05° Asphalt 0 ft / 0 m 0 ft / 0 m
16 151 ft / 46 m 5,438 ft / 1,657 m 177.36° 162.07° Asphalt 0 ft / 0 m 0 ft / 0 m
20 75 ft / 23 m 3,041 ft / 927 m 217.35° 202.06° Asphalt 0 ft / 0 m 400 ft / 122 m
34 151 ft / 46 m 5,438 ft / 1,657 m 357.36° 342.07° Asphalt 299 ft / 91 m 0 ft / 0 m

KCVO

Details ICAO KCVO
Name CORVALLIS MUNI
Region United States
Timezone America/Los_Angeles (UTC-8.0)
Stats Elevation 246 ft / 75 m (AMSL)
Location 44.497677° -123.288546°
Runways 2
Magnetic Variation 15.151° E

METAR

KCVO 181756Z AUTO 17008KT 10SM OVC031 08/06 A3023 RMK AO2 SLP240 T00780056 10078 20039 53007

Decode

TAF

Not found

Destination Runways

ID Width Length Bearing (true) Bearing (mag) Surface Threshold Offset Overrun Length
09 75 ft / 23 m 3,540 ft / 1,079 m 112.18° 97.03° Asphalt 0 ft / 0 m 364 ft / 111 m
17 151 ft / 46 m 5,904 ft / 1,799 m 187.16° 172.01° Asphalt 0 ft / 0 m 0 ft / 0 m
27 75 ft / 23 m 3,540 ft / 1,079 m 292.19° 277.04° Asphalt 0 ft / 0 m 0 ft / 0 m
35 151 ft / 46 m 5,904 ft / 1,799 m 7.16° 352.01° Asphalt 0 ft / 0 m 197 ft / 60 m

Approach Navaids

Runway Type Ident Frequency Range Bearing (true) Bearing (mag) Slope Elevation
17 Localiser ICVO 111.90 MHz 18 nm / 33 km 187.01° 171.86° - 246 ft / 75 m (AMSL)
17 Glidescope ICVO 111.90 MHz 10 nm / 19 km 187.16° 172.01° 3.00° 242 ft / 74 m (AMSL)

Popular Alternatives